Weather History for Catania, Italy

Change the Weather History Date:

Monday, December 24, 2012

  Actual Average Record
Temperature  
Mean Temperature 48 °F -  
Max Temperature 62 °F 60 °F 73 °F (1996)
Min Temperature 35 °F 42 °F 32 °F (1998)
Degree Days  
Heating Degree Days 16    
Moisture  
Dew Point 39 °F    
Average Humidity 76    
Maximum Humidity 93    
Minimum Humidity 45    
Precipitation  
Precipitation 0.00 in 0.10 in - ()
Sea Level Pressure  
Sea Level Pressure 30.24 in    
Wind  
Wind Speed 5 mph ()    
Max Wind Speed 9 mph    
Max Gust Speed -    
Averages and records for this station are not official NWS values.
T = Trace of Precipitation, MM = Missing Value Source: Averaged Metar Reports

Daily Weather History Graph

Daily Weather History Graph

Search for Another Location

Airport:

Trip Planner

Search our weather history database for the weather conditions in past years. The results will help you decide how hot, cold, wet, or windy it might be!

Date:

Astronomy

Dec. 24, 2012 Rise Set
Actual Time 7:12 AM CET 4:46 PM CET
Civil Twilight 6:42 AM CET 5:16 PM CET
Nautical Twilight 6:10 AM CET 5:49 PM CET
Astronomical Twilight 5:38 AM CET 6:20 PM CET
Moon 2:01 PM CET (12/24) 3:36 AM CET (12/24)
Length of Visible Light 10h 33m
Length of Day
9h 34m
Waxing Gibbous, 86% of the Moon is Illuminated
Dec 24
Waxing Gibbous
Dec 28
Full
Jan 5
Last Quarter
Jan 11
New
Jan 19
First Quarter

Hourly Weather History & Observations

Time (CET) Temp. Windchill Dew Point Humidity Pressure Visibility Wind Dir Wind Speed Gust Speed Precip Events Conditions
12:20 AM 39.2 °F 35.9 °F 35.6 °F 87% 30.21 in - WSW 4.6 mph - N/A   Clear
12:50 AM 39.2 °F 35.0 °F 35.6 °F 87% 30.21 in - WSW 5.8 mph - N/A   Clear
1:20 AM 39.2 °F 33.6 °F 33.8 °F 81% 30.21 in - WSW 8.1 mph - N/A   Clear
1:50 AM 37.4 °F 32.8 °F 33.8 °F 87% 30.21 in - WSW 5.8 mph - N/A   Clear
2:50 AM 37.4 °F 32.8 °F 35.6 °F 93% 30.21 in - West 5.8 mph - N/A   Clear
3:20 AM 39.2 °F - 35.6 °F 87% 30.21 in - Variable 2.3 mph - N/A   Clear
3:50 AM 37.4 °F 33.8 °F 33.8 °F 87% 30.21 in - SW 4.6 mph - N/A   Clear
4:20 AM 37.4 °F 31.4 °F 33.8 °F 87% 30.18 in - SW 8.1 mph - N/A   Clear
4:50 AM 35.6 °F 31.7 °F 32.0 °F 87% 30.21 in - WSW 4.6 mph - N/A   Clear
5:20 AM 35.6 °F 31.7 °F 32.0 °F 87% 30.21 in - WSW 4.6 mph - N/A   Clear
5:50 AM 35.6 °F 29.9 °F 32.0 °F 87% 30.21 in - WSW 6.9 mph - N/A   Clear
6:20 AM 35.6 °F 30.7 °F 32.0 °F 87% 30.21 in - WSW 5.8 mph - N/A   Clear
6:50 AM 35.6 °F 31.7 °F 32.0 °F 87% 30.21 in - SW 4.6 mph - N/A   Clear
7:50 AM 35.6 °F 31.7 °F 33.8 °F 93% 30.24 in - WSW 4.6 mph - N/A   Clear
8:20 AM 39.2 °F 35.0 °F 35.6 °F 87% 30.24 in - SW 5.8 mph - N/A   Clear
8:50 AM 42.8 °F 39.3 °F 37.4 °F 81% 30.27 in - WSW 5.8 mph - N/A   Clear
9:20 AM 46.4 °F 42.9 °F 39.2 °F 76% 30.27 in - WSW 6.9 mph - N/A   Clear
9:50 AM 50.0 °F - 39.2 °F 66% 30.27 in - WSW 8.1 mph - N/A   Clear
10:20 AM 53.6 °F - 39.2 °F 58% 30.27 in - WSW 8.1 mph - N/A   Clear
10:50 AM 57.2 °F - 39.2 °F 51% 30.27 in - WSW 5.8 mph - N/A   Clear
11:20 AM 59.0 °F - 39.2 °F 48% 30.27 in - WSW 4.6 mph - N/A   Clear
11:50 AM 60.8 °F - 39.2 °F 45% 30.24 in - SW 4.6 mph - N/A   Clear
12:20 PM 60.8 °F - 41.0 °F 48% 30.24 in - SSW 3.5 mph - N/A   Clear
12:50 PM 60.8 °F - 41.0 °F 48% 30.24 in - South 3.5 mph - N/A   Clear
1:20 PM 62.6 °F - 41.0 °F 45% 30.24 in - Variable 2.3 mph - N/A   Clear
1:50 PM 60.8 °F - 42.8 °F 52% 30.21 in - ESE 4.6 mph - N/A   Clear
2:20 PM 60.8 °F - 42.8 °F 52% 30.21 in - East 6.9 mph - N/A   Clear
2:50 PM 60.8 °F - 44.6 °F 55% 30.21 in - East 5.8 mph - N/A   Clear
3:20 PM 60.8 °F - 46.4 °F 59% 30.21 in - East 5.8 mph - N/A   Clear
3:50 PM 59.0 °F - 46.4 °F 63% 30.21 in - East 4.6 mph - N/A   Clear
4:20 PM 57.2 °F - 46.4 °F 67% 30.21 in - East 4.6 mph - N/A   Clear
4:50 PM 57.2 °F - 46.4 °F 67% 30.21 in - East 2.3 mph - N/A   Clear
5:20 PM 53.6 °F - 46.4 °F 77% 30.24 in - ESE 2.3 mph - N/A   Clear
5:50 PM 53.6 °F - 46.4 °F 77% 30.24 in - Calm Calm - N/A   Clear
6:20 PM 51.8 °F - 46.4 °F 82% 30.24 in - Calm Calm - N/A   Clear
6:50 PM 50.0 °F - 44.6 °F 82% 30.24 in - Variable 1.2 mph - N/A   Clear
7:20 PM 48.2 °F - 44.6 °F 87% 30.24 in - WNW 2.3 mph - N/A   Clear
7:50 PM 46.4 °F 45.2 °F 42.8 °F 87% 30.27 in - WNW 3.5 mph - N/A   Clear
8:20 PM 46.4 °F 45.2 °F 42.8 °F 87% 30.27 in - WNW 3.5 mph - N/A   Clear
8:50 PM 46.4 °F 43.5 °F 42.8 °F 87% 30.27 in - West 5.8 mph - N/A   Clear
9:20 PM 46.4 °F 43.5 °F 42.8 °F 87% 30.27 in - WNW 5.8 mph - N/A   Clear
9:50 PM 44.6 °F 41.4 °F 41.0 °F 87% 30.27 in - WSW 5.8 mph - N/A   Clear
10:20 PM 42.8 °F 38.6 °F 39.2 °F 87% 30.27 in - WSW 6.9 mph - N/A   Clear
10:50 PM 41.0 °F 35.8 °F 39.2 °F 93% 30.27 in - WSW 8.1 mph - N/A   Clear
11:20 PM 41.0 °F 35.2 °F 37.4 °F 87% 30.27 in - SW 9.2 mph - N/A   Clear
11:50 PM 39.2 °F 33.6 °F 37.4 °F 93% 30.27 in - WSW 8.1 mph - N/A   Clear